KI5NYZ-13 Weather Reports


Display with metric or nautical units.
time (UTC)temp
F
wind
direction
speed
MPH
gust
MPH
rain 1hr
in
rain 24hr
in
rain mn
in
humidity
%
barometer
mb
20260502163252 59 260 3.0 4.0 0.00 0.06 0.00 55 1022.8
20260502130245 48 11 4.0 4.0 0.00 0.17 0.00 78 1024.0
20260502123244 47 3 2.0 2.0 0.00 0.18 0.00 81 1023.9
20260502120243 47 1 3.0 3.0 0.00 0.18 0.00 81 1023.8
20260502113242 47 358 3.0 3.0 0.00 0.19 0.00 83 1023.6
20260502110241 48 343 4.0 4.0 0.00 0.20 0.00 84 1023.1
20260502103240 49 346 2.0 3.0 0.00 0.20 0.00 85 1022.7
20260502100239 49 343 0.0 1.0 0.00 0.20 0.00 80 1022.6
20260502090237 51 336 2.0 2.0 0.00 0.20 0.00 71 1021.8
20260502070233 50 162 0.0 0.0 0.00 0.21 0.00 74 1022.5
20260502063232 50 116 0.0 1.0 0.00 0.21 0.00 71 1022.3
20260502060231 51 49 0.0 0.0 0.00 0.21 0.00 73 1022.4
20260502053230 51 353 0.0 0.0 0.00 0.21 0.00 71 1022.4
20260502043228 51 14 1.0 3.0 0.00 0.21 0.21 77 1021.4
20260502040227 52 356 0.0 2.0 0.00 0.21 0.21 72 1021.0
20260502033226 52 316 0.0 0.0 0.00 0.21 0.21 69 1020.5
20260502030225 53 331 0.0 0.0 0.00 0.21 0.21 59 1019.4
20260502023224 55 131 0.0 2.0 0.00 0.21 0.21 53 1018.6
20260502020223 55 132 0.0 4.0 0.00 0.21 0.21 50 1018.3
20260502013222 55 360 0.0 0.0 0.00 0.21 0.21 53 1018.3
20260502010221 56 50 3.0 8.0 0.00 0.21 0.21 45 1018.0
20260502003220 56 47 1.0 3.0 0.00 0.21 0.21 49 1017.7
20260502000219 56 46 0.0 2.0 0.00 0.21 0.21 58 1017.6
20260501233218 55 97 0.0 1.0 0.00 0.21 0.21 62 1017.4
20260501230217 54 103 0.0 1.0 0.00 0.21 0.21 69 1017.3
20260501223216 54 53 0.0 2.0 0.00 0.20 0.20 79 1016.9
20260501220215 54 92 2.0 4.0 0.00 0.20 0.19 77 1016.5
20260501213214 54 88 3.0 6.0 0.00 0.20 0.19 73 1016.5
20260501205914 54 87 3.0 5.0 0.00 0.20 0.19 75 1017.0
20260501202913 54 99 5.0 8.0 0.00 0.20 0.19 66 1017.0
20260501195912 54 96 7.0 12.0 0.00 0.20 0.19 72 1017.2
20260501192911 53 94 6.0 10.0 0.01 0.19 0.18 75 1017.3
20260501185910 52 106 6.0 9.0 0.02 0.19 0.18 74 1018.0
20260501182909 52 110 7.0 12.0 0.02 0.18 0.17 74 1018.4
20260501172808 50 107 6.0 10.0 0.00 0.16 0.15 78 1019.3
20260501165807 50 105 7.0 10.0 0.00 0.15 0.14 78 1019.6